Weather History for Mineral Wells, TX

Change the Weather History Date:

Wednesday, January 16, 2013

  Actual Average Record
Temperature  
Mean Temperature 34 °F -  
Max Temperature 48 °F 56 °F 75 °F (2000)
Min Temperature 19 °F 32 °F 19 °F (2013)
Degree Days  
Heating Degree Days 32    
Moisture  
Dew Point 18 °F    
Average Humidity 54    
Maximum Humidity 89    
Minimum Humidity 24    
Precipitation  
Precipitation 0.00 in - - ()
Sea Level Pressure  
Sea Level Pressure 30.24 in    
Wind  
Wind Speed 5 mph (West)    
Max Wind Speed 13 mph    
Max Gust Speed 17 mph    
Averages and records for this station are not official NWS values.
T = Trace of Precipitation, MM = Missing Value Source: NWS Daily Summary

Daily Weather History Graph

Daily Weather History Graph

Search for Another Location

Airport:

Trip Planner

Search our weather history database for the weather conditions in past years. The results will help you decide how hot, cold, wet, or windy it might be!

Date:

Astronomy

Jan. 16, 2013 Rise Set
Actual Time 7:34 AM CST 5:50 PM CST
Civil Twilight 7:07 AM CST 6:16 PM CST
Nautical Twilight 6:37 AM CST 6:46 PM CST
Astronomical Twilight 6:08 AM CST 7:16 PM CST
Moon 10:31 AM CST (1/16) 11:20 PM CST (1/16)
Length of Visible Light 11h 08m
Length of Day
10h 15m
Waxing Crescent, 28% of the Moon is Illuminated
Jan 16
Waxing Crescent
Jan 18
First Quarter
Jan 26
Full
Feb 3
Last Quarter
Feb 10
New

Hourly Weather History & Observations

Time (CST) Temp. Windchill Dew Point Humidity Pressure Visibility Wind Dir Wind Speed Gust Speed Precip Events Conditions
12:53 AM 25.0 °F 17.1 °F 17.1 °F 72% 30.25 in - WNW 6.9 mph - N/A   Clear
2:53 AM 24.1 °F 18.2 °F 17.1 °F 75% 30.27 in - West 4.6 mph - N/A   Clear
3:53 AM 23.0 °F 17.0 °F 17.1 °F 78% 30.27 in - West 4.6 mph - N/A   Clear
4:53 AM - - - N/A% 30.25 in - North - - N/A   Unknown
5:53 AM 21.2 °F 14.9 °F 17.6 °F 86% 30.25 in - West 4.6 mph - N/A   Unknown
6:53 AM 21.0 °F 16.2 °F 17.1 °F 85% 30.27 in - West 3.5 mph - N/A   Clear
7:53 AM 19.9 °F - 17.1 °F 89% 30.30 in - Calm Calm - N/A   Clear
8:53 AM 26.1 °F - 19.9 °F 78% 30.30 in - Calm Calm - N/A   Clear
9:53 AM 30.9 °F - 19.9 °F 64% 30.30 in - Calm Calm - N/A   Clear
10:53 AM 36.0 °F 33.3 °F 21.0 °F 55% 30.28 in - WNW 3.5 mph - N/A   Clear
11:53 AM 42.1 °F 37.1 °F 19.0 °F 40% 30.24 in - West 8.1 mph 16.1 mph N/A   Clear
12:53 PM 45.0 °F 39.3 °F 18.0 °F 34% 30.20 in - West 11.5 mph 17.3 mph N/A   Clear
1:53 PM 46.0 °F 40.2 °F 16.0 °F 30% 30.18 in - West 12.7 mph - N/A   Clear
2:53 PM 48.0 °F - 16.0 °F 28% 30.16 in - WNW 9.2 mph 16.1 mph N/A   Clear
3:53 PM 48.9 °F - 12.9 °F 24% 30.17 in - WNW 12.7 mph - N/A   Clear
4:53 PM 48.9 °F - 14.0 °F 25% 30.15 in - WNW 8.1 mph - N/A   Clear
5:53 PM 45.0 °F 41.8 °F 17.1 °F 33% 30.18 in - WNW 5.8 mph - N/A   Clear
6:53 PM 42.1 °F - 17.1 °F 37% 30.20 in - Calm Calm - N/A   Clear
7:53 PM 43.0 °F - 17.1 °F 35% 30.22 in - Calm Calm - N/A   Overcast
8:53 PM 42.1 °F - 19.9 °F 41% 30.24 in - Calm Calm - N/A   Overcast
9:53 PM 37.9 °F - 19.0 °F 47% 30.24 in - Calm Calm - N/A   Clear
10:53 PM 34.0 °F 29.8 °F 23.0 °F 64% 30.25 in - West 4.6 mph - N/A   Clear
11:53 PM 34.0 °F 27.2 °F 24.1 °F 67% 30.26 in - West 8.1 mph - N/A   Clear